Miscellaneous Local Product
Issued by NWS Hastings, NE

Home | Current Version | Previous Version | Graphics & Text | Print | Product List | Glossary On
Versions: 1 2 3 4 5 6 7 8 9 10 11 12 13 14 15 16 17 18 19 20 21 22 23 24 25 26 27 28 29 30 31 32 33 34 35 36 37 38 39 40 41 42 43 44 45 46 47 48 49 50
838
AXUS43 KGID 051302
MISGRI

GID CWA HOURLY WEATHER ROUNDUP
NATIONAL WEATHER SERVICE HASTINGS NE
800 AM CDT THU MAY 05 2016

NOTE: "FAIR" INDICATES FEW OR NO CLOUDS BELOW 12,000 FEET WITH NO
SIGNIFICANT WEATHER AND/OR OBSTRUCTIONS TO VISIBILITY.

...SOUTH CENTRAL NEBRASKA...

CITY           SKY/WX    TMP DP  RH WIND       PRES   REMARKS
GRAND ISLAND   SUNNY     49  40  71 W3        30.11S
HASTINGS       SUNNY     50  40  68 CALM      30.10S
KEARNEY        SUNNY     46  39  76 W3        30.11S
ORD            SUNNY     44  41  89 CALM      30.09R
YORK           SUNNY     48  41  76 W8        30.11R
AURORA         SUNNY     50  40  67 W5        30.11R
LEXINGTON      SUNNY     60  41  48 CALM      30.11S
HOLDREGE       SUNNY     46  42  84 CALM      30.10S
HEBRON         SUNNY     44  40  84 CALM      30.11R

...NEBRASKA PANHANDLE...

CITY           SKY/WX    TMP DP  RH WIND       PRES   REMARKS
CHADRON        SUNNY     56  46  69 N5        29.99S
ALLIANCE       SUNNY     48  44  86 SE8       30.06S
SCOTTSBLUFF    SUNNY     54  43  66 E5        30.06S
SIDNEY         SUNNY     51  43  74 W7        30.10R

...WESTERN AND NORTH CENTRAL NEBRASKA...

CITY           SKY/WX    TMP DP  RH WIND       PRES   REMARKS
VALENTINE      SUNNY     52  42  69 CALM      30.06R
AINSWORTH      SUNNY     52  43  72 S7        30.07S
ONEILL         SUNNY     49  43  80 SW5       30.07F
BROKEN BOW     SUNNY     48  41  76 CALM      30.10R
IMPERIAL       SUNNY     50  44  80 SW3       30.11R
NORTH PLATTE   SUNNY     48  42  80 SE6       30.10R
MCCOOK         SUNNY     46  43  89 CALM      30.11R

...EASTERN NEBRASKA...

CITY           SKY/WX    TMP DP  RH WIND       PRES   REMARKS
NORFOLK        SUNNY     50  40  68 CALM      30.08R
SO SIOUX CITY  SUNNY     47  41  80 CALM      30.08R
TEKAMAH        SUNNY     49  43  80 CALM      30.08R
COLUMBUS       SUNNY     46  36  66 CALM      30.10R
ALBION         SUNNY     45  41  86 CALM      30.09S
OMAHA EPPLEY   MOSUNNY   50  44  80 CALM      30.08R
OFFUTT AFB     SUNNY     50  44  80 NW5       30.07R
MILLARD        SUNNY     48  42  79 W3        30.08R
LINCOLN        SUNNY     49  41  74 CALM      30.10R
NEBRASKA CITY  SUNNY     51  38  61 N5        30.08R
BEATRICE       SUNNY     47  41  79 NW3       30.09R
FALLS CITY     SUNNY     50  43  77 NW6       30.07R

...NORTHERN KANSAS...

CITY           SKY/WX    TMP DP  RH WIND       PRES   REMARKS
GOODLAND       SUNNY     56  42  59 S13       30.11R
HILL CITY      SUNNY     48  43  82 CALM      30.12R
NORTON         SUNNY     48  41  76 CALM      30.11
PHILLIPSBURG   SUNNY     46  43  87 CALM      30.11S
SMITH CENTER   SUNNY     43  41  93 SW3       30.12R
BELOIT         SUNNY     43  37  81 CALM      30.11R
HAYS           SUNNY     48  39  71 W5        30.12R
RUSSELL        SUNNY     51  44  77 N3        30.10R
CONCORDIA      SUNNY     49  40  71 W6        30.11R
SALINA         SUNNY     50  42  74 CALM      30.11R
TOPEKA         SUNNY     51  44  77 W5        30.08R



USA.gov is the U.S. government's official web portal to all federal, state and local government web resources and services.